START_TIME,STEP,MOV.,AL01,t_acc.,AL02,t_acc.,E37,t_acc.,H21,t_acc.
1979-03-01 00:00:23.750 ,3,1,0.,24.0,0.,24.0,0.,24.0,0.,24.0
1979-03-01 00:00:47.750 ,4,1,0.,24.0,0.,24.0,0.,24.0,0.,24.0
1979-03-01 00:01:11.750 ,5,1,0.,24.0,0.,24.0,0.,24.0,0.,24.0
1979-03-01 00:01:35.750 ,6,1,0.,24.0,0.,24.0,0.,24.0,0.,24.0
1979-03-01 00:01:59.750 ,7,1,1.,24.0,0.,24.0,0.,24.0,0.,24.0
1979-03-01 00:02:23.750 ,7,1,14.,24.0,0.,24.0,0.,24.0,0.,24.0
1979-03-01 00:02:47.750 ,6,1,4.,24.0,0.,24.0,0.,24.0,0.,24.0
1979-03-01 00:03:11.750 ,5,1,0.,24.0,0.,24.0,1.,24.0,0.,24.0
1979-03-01 00:03:35.750 ,4,1,0.,24.0,0.,24.0,0.,24.0,0.,24.0
1979-03-01 00:03:59.750 ,3,1,0.,24.0,0.,24.0,0.,24.0,0.,24.0
1979-03-01 00:04:23.750 ,2,1,0.,24.0,0.,24.0,0.,24.0,0.,24.0
1979-03-01 00:04:47.750 ,1,1,0.,24.0,0.,24.0,0.,24.0,0.,24.0
1979-03-01 00:05:11.750 ,0,1,0.,24.0,0.,24.0,0.,24.0,0.,24.0
1979-03-01 00:05:35.750 ,0,1,0.,24.0,0.,24.0,0.,24.0,0.,24.0
1979-03-01 00:05:59.750 ,1,1,1.,24.0,0.,24.0,0.,24.0,0.,24.0
1979-03-01 00:06:23.750 ,2,1,0.,24.0,0.,24.0,1.,24.0,0.,24.0
1979-03-01 00:06:47.750 ,3,1,0.,24.0,0.,24.0,0.,24.0,0.,24.0
1979-03-01 00:07:11.750 ,4,1,0.,24.0,0.,24.0,0.,24.0,0.,24.0
1979-03-01 00:07:35.750 ,5,1,0.,24.0,0.,24.0,0.,24.0,0.,24.0
1979-03-01 00:07:59.750 ,6,1,0.,24.0,0.,24.0,0.,24.0,0.,24.0
1979-03-01 00:08:23.750 ,7,1,1.,24.0,0.,24.0,0.,24.0,0.,24.0
1979-03-01 00:08:47.750 ,7,1,9.,24.0,0.,24.0,0.,24.0,0.,24.0
1979-03-01 00:09:11.750 ,6,1,6.,24.0,0.,24.0,0.,24.0,0.,24.0
1979-03-01 00:09:35.750 ,5,1,0.,24.0,0.,24.0,0.,24.0,0.,24.0
1979-03-01 00:09:59.750 ,4,1,1.,24.0,0.,24.0,1.,24.0,0.,24.0
1979-03-01 00:10:23.750 ,3,1,0.,24.0,0.,24.0,0.,24.0,0.,24.0
1979-03-01 00:10:47.750 ,2,1,0.,24.0,0.,24.0,1.,24.0,0.,24.0
1979-03-01 00:11:11.750 ,1,1,0.,24.0,0.,24.0,0.,24.0,0.,24.0
1979-03-01 00:11:35.750 ,0,1,0.,24.0,0.,24.0,0.,24.0,0.,24.0
1979-03-01 00:11:59.750 ,0,1,0.,24.0,0.,24.0,0.,24.0,0.,24.0
1979-03-01 00:12:23.750 ,1,1,0.,24.0,0.,24.0,0.,24.0,0.,24.0
1979-03-01 00:12:47.750 ,2,1,0.,24.0,0.,24.0,0.,24.0,0.,24.0
1979-03-01 00:13:11.750 ,3,1,0.,24.0,0.,24.0,1.,24.0,0.,24.0
1979-03-01 00:13:35.750 ,4,1,0.,24.0,0.,24.0,0.,24.0,0.,24.0
1979-03-01 00:13:59.750 ,5,1,0.,24.0,0.,24.0,0.,24.0,0.,24.0
1979-03-01 00:14:23.750 ,6,1,0.,24.0,0.,24.0,0.,24.0,0.,24.0
1979-03-01 00:14:47.750 ,7,1,3.,24.0,0.,24.0,0.,24.0,0.,24.0
1979-03-01 00:15:11.750 ,7,1,9.,24.0,0.,24.0,0.,24.0,0.,24.0
1979-03-01 00:15:35.750 ,6,1,3.,24.0,0.,24.0,0.,24.0,0.,24.0
1979-03-01 00:15:59.750 ,5,1,0.,24.0,0.,24.0,1.,24.0,0.,24.0
1979-03-01 00:16:23.750 ,4,1,,0,,0,,0,,0
1979-03-01 00:16:47.750 ,3,1,0.,24.0,0.,24.0,0.,24.0,0.,24.0
1979-03-01 00:17:11.750 ,2,1,0.,24.0,0.,24.0,0.,24.0,0.,24.0
1979-03-01 00:17:35.750 ,1,1,0.,24.0,0.,24.0,0.,24.0,0.,24.0
1979-03-01 00:17:59.750 ,0,1,0.,24.0,0.,24.0,0.,24.0,0.,24.0
1979-03-01 00:18:23.750 ,0,1,0.,24.0,0.,24.0,0.,24.0,0.,24.0
1979-03-01 00:18:47.750 ,1,1,0.,24.0,0.,24.0,0.,24.0,0.,24.0
1979-03-01 00:19:11.750 ,2,1,0.,24.0,0.,24.0,0.,24.0,0.,24.0
1979-03-01 00:19:35.750 ,3,1,0.,24.0,1.,24.0,0.,24.0,0.,24.0
1979-03-01 00:19:59.750 ,4,1,0.,24.0,0.,24.0,0.,24.0,0.,24.0
1979-03-01 00:20:23.750 ,0,0,0.,24.0,0.,24.0,0.,24.0,0.,24.0
1979-03-01 00:20:47.750 ,0,0,0.,24.0,0.,24.0,0.,24.0,0.,24.0
1979-03-01 00:21:11.750 ,7,1,3.,24.0,0.,24.0,0.,24.0,0.,24.0
1979-03-01 00:21:35.750 ,7,1,8.,24.0,0.,24.0,0.,24.0,0.,24.0
1979-03-01 00:21:59.750 ,6,1,3.,24.0,1.,24.0,0.,24.0,0.,24.0
1979-03-01 00:22:23.750 ,5,1,0.,24.0,0.,24.0,0.,24.0,0.,24.0
1979-03-01 00:22:47.750 ,4,1,0.,24.0,0.,24.0,0.,24.0,0.,24.0
1979-03-01 00:23:11.750 ,3,1,0.,24.0,0.,24.0,0.,24.0,0.,24.0
1979-03-01 00:23:35.750 ,2,1,0.,24.0,0.,24.0,0.,24.0,0.,24.0
1979-03-01 00:23:59.750 ,1,1,0.,24.0,0.,24.0,1.,24.0,0.,24.0
1979-03-01 00:24:23.750 ,0,1,0.,24.0,1.,24.0,0.,24.0,0.,24.0
1979-03-01 00:24:47.750 ,0,1,0.,24.0,0.,24.0,0.,24.0,0.,24.0
1979-03-01 00:25:11.750 ,1,1,0.,24.0,0.,24.0,0.,24.0,0.,24.0
1979-03-01 00:25:35.750 ,2,1,0.,24.0,0.,24.0,0.,24.0,0.,24.0
1979-03-01 00:25:59.750 ,3,1,0.,24.0,0.,24.0,0.,24.0,0.,24.0
1979-03-01 00:26:23.750 ,4,1,0.,24.0,0.,24.0,0.,24.0,0.,24.0
1979-03-01 00:26:47.750 ,5,1,0.,24.0,0.,24.0,0.,24.0,0.,24.0
1979-03-01 00:27:11.750 ,6,1,0.,24.0,0.,24.0,0.,24.0,0.,24.0
1979-03-01 00:27:35.750 ,7,1,3.,24.0,0.,24.0,0.,24.0,0.,24.0
1979-03-01 00:27:59.750 ,7,1,12.,24.0,0.,24.0,0.,24.0,0.,24.0
1979-03-01 00:28:23.750 ,6,1,13.,24.0,0.,24.0,0.,24.0,0.,24.0
1979-03-01 00:28:47.750 ,5,1,0.,24.0,0.,24.0,0.,24.0,0.,24.0
1979-03-01 00:29:11.750 ,4,1,0.,24.0,0.,24.0,1.,24.0,0.,24.0
1979-03-01 00:29:35.750 ,3,1,0.,24.0,0.,24.0,0.,24.0,0.,24.0
1979-03-01 00:29:59.750 ,2,1,0.,24.0,0.,24.0,0.,24.0,0.,24.0
1979-03-01 00:30:23.750 ,1,1,0.,24.0,0.,24.0,0.,24.0,0.,24.0
1979-03-01 00:30:47.750 ,0,1,0.,24.0,0.,24.0,1.,24.0,0.,24.0
1979-03-01 00:31:59.750 ,0,0,0.,24.0,0.,24.0,0.,24.0,0.,24.0
1979-03-01 00:32:23.750 ,3,1,0.,24.0,0.,24.0,0.,24.0,0.,24.0
1979-03-01 00:32:47.750 ,4,1,0.,24.0,1.,24.0,0.,24.0,0.,24.0
1979-03-01 00:33:11.750 ,5,1,0.,24.0,0.,24.0,0.,24.0,0.,24.0
1979-03-01 00:33:35.750 ,6,1,0.,24.0,0.,24.0,0.,24.0,0.,24.0
1979-03-01 00:33:59.750 ,7,1,4.,24.0,0.,24.0,0.,24.0,0.,24.0
1979-03-01 00:34:23.750 ,7,1,10.,24.0,0.,24.0,0.,24.0,0.,24.0
1979-03-01 00:34:47.750 ,6,1,10.,24.0,0.,24.0,0.,24.0,0.,24.0
1979-03-01 00:35:11.750 ,5,1,0.,24.0,0.,24.0,0.,24.0,0.,24.0
1979-03-01 00:35:35.750 ,4,1,0.,24.0,0.,24.0,0.,24.0,0.,24.0
1979-03-01 00:35:59.750 ,3,1,0.,24.0,0.,24.0,0.,24.0,0.,24.0
1979-03-01 00:36:23.750 ,2,1,0.,24.0,0.,24.0,0.,24.0,0.,24.0
1979-03-01 00:36:47.750 ,1,1,0.,24.0,0.,24.0,1.,24.0,0.,24.0
1979-03-01 00:37:11.750 ,0,1,0.,24.0,0.,24.0,0.,24.0,0.,24.0
1979-03-01 00:37:35.750 ,0,1,1.,24.0,0.,24.0,0.,24.0,0.,24.0
1979-03-01 00:37:59.750 ,1,1,0.,24.0,0.,24.0,0.,24.0,0.,24.0
1979-03-01 00:39:11.750 ,0,0,0.,24.0,0.,24.0,0.,24.0,0.,24.0
1979-03-01 00:39:35.750 ,5,1,0.,24.0,0.,24.0,0.,24.0,0.,24.0
1979-03-01 00:39:59.750 ,6,1,0.,24.0,0.,24.0,0.,24.0,0.,24.0
1979-03-01 00:40:23.750 ,7,1,3.,24.0,0.,24.0,0.,24.0,0.,24.0
1979-03-01 00:40:47.750 ,7,1,8.,24.0,0.,24.0,0.,24.0,0.,24.0
1979-03-01 00:41:11.750 ,6,1,9.,24.0,0.,24.0,0.,24.0,0.,24.0
1979-03-01 00:41:35.750 ,5,1,0.,24.0,1.,24.0,0.,24.0,0.,24.0
1979-03-01 00:41:59.750 ,4,1,0.,24.0,0.,24.0,0.,24.0,0.,24.0
1979-03-01 00:42:23.750 ,3,1,0.,24.0,0.,24.0,0.,24.0,0.,24.0
1979-03-01 00:42:47.750 ,2,1,0.,24.0,0.,24.0,0.,24.0,0.,24.0
1979-03-01 00:43:11.750 ,1,1,0.,24.0,0.,24.0,0.,24.0,0.,24.0
1979-03-01 00:43:35.750 ,0,1,0.,24.0,0.,24.0,0.,24.0,0.,24.0
1979-03-01 00:43:59.750 ,0,1,0.,24.0,1.,24.0,0.,24.0,0.,24.0
1979-03-01 00:44:23.750 ,1,1,0.,24.0,0.,24.0,1.,24.0,0.,24.0
1979-03-01 00:44:47.750 ,2,1,0.,24.0,0.,24.0,0.,24.0,0.,24.0
1979-03-01 00:45:11.750 ,3,1,0.,24.0,0.,24.0,0.,24.0,0.,24.0
1979-03-01 00:45:35.750 ,4,1,0.,24.0,0.,24.0,0.,24.0,0.,24.0
1979-03-01 00:45:59.750 ,5,1,0.,24.0,0.,24.0,0.,24.0,0.,24.0
1979-03-01 00:46:23.750 ,6,1,0.,24.0,0.,24.0,0.,24.0,0.,24.0
1979-03-01 00:46:47.750 ,7,1,4.,24.0,0.,24.0,1.,24.0,0.,24.0
1979-03-01 00:47:11.750 ,7,1,10.,24.0,0.,24.0,1.,24.0,0.,24.0
1979-03-01 00:47:35.750 ,6,1,9.,24.0,0.,24.0,0.,24.0,0.,24.0
1979-03-01 00:47:59.750 ,5,1,0.,24.0,0.,24.0,0.,24.0,0.,24.0
1979-03-01 00:48:23.750 ,4,1,1.,24.0,0.,24.0,1.,24.0,0.,24.0
1979-03-01 00:48:47.750 ,3,1,0.,24.0,1.,24.0,0.,24.0,0.,24.0
1979-03-01 00:49:11.750 ,2,1,0.,24.0,0.,24.0,0.,24.0,0.,24.0
1979-03-01 00:49:35.750 ,1,1,0.,24.0,0.,24.0,0.,24.0,0.,24.0
1979-03-01 00:49:59.750 ,0,1,0.,24.0,1.,24.0,1.,24.0,0.,24.0
1979-03-01 00:50:23.750 ,0,1,0.,24.0,0.,24.0,1.,24.0,0.,24.0
1979-03-01 00:50:47.750 ,1,1,0.,24.0,0.,24.0,0.,24.0,0.,24.0
1979-03-01 00:51:11.750 ,2,1,0.,24.0,0.,24.0,1.,24.0,0.,24.0
1979-03-01 00:51:35.750 ,3,1,0.,24.0,0.,24.0,0.,24.0,0.,24.0
1979-03-01 00:51:59.750 ,4,1,0.,24.0,0.,24.0,0.,24.0,0.,24.0
1979-03-01 00:52:23.750 ,5,1,0.,24.0,0.,24.0,0.,24.0,0.,24.0
1979-03-01 00:52:47.750 ,6,1,0.,24.0,0.,24.0,0.,24.0,0.,24.0
1979-03-01 00:53:11.750 ,7,1,3.,24.0,0.,24.0,0.,24.0,0.,24.0
1979-03-01 00:53:35.750 ,7,1,9.,24.0,0.,24.0,0.,24.0,0.,24.0
1979-03-01 00:53:59.750 ,6,1,10.,24.0,0.,24.0,0.,24.0,0.,24.0
1979-03-01 00:54:23.750 ,5,1,0.,24.0,0.,24.0,0.,24.0,0.,24.0
1979-03-01 00:54:47.750 ,4,1,1.,24.0,0.,24.0,0.,24.0,0.,24.0
1979-03-01 00:55:11.750 ,3,1,0.,24.0,0.,24.0,0.,24.0,0.,24.0
1979-03-01 00:55:35.750 ,2,1,0.,24.0,0.,24.0,0.,24.0,0.,24.0
1979-03-01 00:55:59.750 ,1,1,0.,24.0,0.,24.0,1.,24.0,0.,24.0
1979-03-01 00:56:23.750 ,0,1,0.,24.0,0.,24.0,0.,24.0,0.,24.0
1979-03-01 00:56:47.750 ,0,1,0.,24.0,0.,24.0,0.,24.0,0.,24.0
1979-03-01 00:57:11.750 ,1,1,0.,24.0,0.,24.0,0.,24.0,0.,24.0
1979-03-01 00:57:35.750 ,2,1,0.,24.0,0.,24.0,0.,24.0,0.,24.0
1979-03-01 00:57:59.750 ,3,1,0.,24.0,0.,24.0,0.,24.0,0.,24.0
1979-03-01 00:58:23.750 ,4,1,0.,24.0,0.,24.0,0.,24.0,0.,24.0
1979-03-01 00:58:47.750 ,5,1,0.,24.0,0.,24.0,0.,24.0,0.,24.0
1979-03-01 00:59:11.750 ,6,1,0.,24.0,0.,24.0,0.,24.0,0.,24.0
1979-03-01 00:59:35.750 ,7,1,1.,24.0,0.,24.0,0.,24.0,0.,24.0
1979-03-01 00:59:59.750 ,7,1,11.,24.0,0.,24.0,0.,24.0,0.,24.0
1979-03-01 01:00:23.750 ,6,1,3.,24.0,0.,24.0,0.,24.0,0.,24.0
1979-03-01 01:00:47.750 ,5,1,0.,24.0,0.,24.0,0.,24.0,0.,24.0
1979-03-01 01:01:11.750 ,4,1,0.,24.0,0.,24.0,0.,24.0,0.,24.0
1979-03-01 01:01:35.750 ,3,1,0.,24.0,0.,24.0,0.,24.0,0.,24.0
1979-03-01 01:01:59.750 ,2,1,0.,24.0,0.,24.0,0.,24.0,0.,24.0
1979-03-01 01:02:23.750 ,1,1,0.,24.0,0.,24.0,0.,24.0,0.,24.0
1979-03-01 01:02:47.750 ,0,1,0.,24.0,0.,24.0,1.,24.0,0.,24.0
1979-03-01 01:03:11.750 ,0,1,0.,24.0,0.,24.0,0.,24.0,0.,24.0
1979-03-01 01:03:35.750 ,1,1,0.,24.0,0.,24.0,0.,24.0,0.,24.0
1979-03-01 01:03:59.750 ,2,1,0.,24.0,0.,24.0,1.,24.0,0.,24.0
1979-03-01 01:04:23.750 ,3,1,0.,24.0,0.,24.0,0.,24.0,0.,24.0
1979-03-01 01:04:47.750 ,4,1,0.,24.0,0.,24.0,1.,24.0,0.,24.0
1979-03-01 01:05:11.750 ,5,1,0.,24.0,0.,24.0,0.,24.0,0.,24.0
1979-03-01 01:05:35.750 ,6,1,1.,24.0,0.,24.0,0.,24.0,0.,24.0
1979-03-01 01:05:59.750 ,7,1,1.,24.0,0.,24.0,0.,24.0,0.,24.0
1979-03-01 01:06:23.750 ,7,1,8.,24.0,0.,24.0,0.,24.0,0.,24.0
1979-03-01 01:06:47.750 ,6,1,9.,24.0,0.,24.0,0.,24.0,0.,24.0
1979-03-01 01:07:11.750 ,5,1,0.,24.0,0.,24.0,1.,24.0,0.,24.0
1979-03-01 01:07:35.750 ,4,1,0.,24.0,0.,24.0,0.,24.0,0.,24.0
1979-03-01 01:07:59.750 ,3,1,0.,24.0,0.,24.0,0.,24.0,0.,24.0
1979-03-01 01:08:23.750 ,2,1,0.,24.0,0.,24.0,0.,24.0,0.,24.0
1979-03-01 01:08:47.750 ,1,1,0.,24.0,0.,24.0,0.,24.0,0.,24.0
1979-03-01 01:09:11.750 ,0,1,0.,24.0,0.,24.0,0.,24.0,0.,24.0
1979-03-01 01:09:35.750 ,0,1,1.,24.0,0.,24.0,0.,24.0,0.,24.0
1979-03-01 01:09:59.750 ,1,1,0.,24.0,0.,24.0,0.,24.0,0.,24.0
1979-03-01 01:10:23.750 ,2,1,1.,24.0,0.,24.0,0.,24.0,0.,24.0
1979-03-01 01:10:47.750 ,3,1,0.,24.0,0.,24.0,0.,24.0,0.,24.0
1979-03-01 01:11:11.750 ,4,1,0.,24.0,0.,24.0,1.,24.0,0.,24.0
1979-03-01 01:11:35.750 ,5,1,0.,24.0,0.,24.0,0.,24.0,0.,24.0
1979-03-01 01:11:59.750 ,6,1,0.,24.0,0.,24.0,0.,24.0,0.,24.0
1979-03-01 01:12:23.750 ,7,1,1.,24.0,0.,24.0,0.,24.0,0.,24.0
1979-03-01 01:12:47.750 ,7,1,10.,24.0,0.,24.0,0.,24.0,0.,24.0
1979-03-01 01:13:11.750 ,6,1,5.,24.0,0.,24.0,0.,24.0,0.,24.0
1979-03-01 01:13:35.750 ,5,1,0.,24.0,1.,24.0,0.,24.0,0.,24.0
1979-03-01 01:13:59.750 ,4,1,0.,24.0,1.,24.0,0.,24.0,0.,24.0
1979-03-01 01:14:23.750 ,3,1,0.,24.0,0.,24.0,0.,24.0,0.,24.0
1979-03-01 01:14:47.750 ,2,1,0.,24.0,0.,24.0,0.,24.0,0.,24.0
1979-03-01 01:15:11.750 ,1,1,0.,24.0,0.,24.0,0.,24.0,0.,24.0
1979-03-01 01:15:35.750 ,0,1,0.,24.0,0.,24.0,0.,24.0,0.,24.0
1979-03-01 01:15:59.750 ,0,1,1.,24.0,0.,24.0,0.,24.0,0.,24.0
1979-03-01 01:16:23.750 ,1,1,1.,24.0,0.,24.0,1.,24.0,0.,24.0
1979-03-01 01:16:47.750 ,2,1,0.,24.0,0.,24.0,0.,24.0,0.,24.0
1979-03-01 01:17:11.750 ,3,1,0.,24.0,1.,24.0,1.,24.0,0.,24.0
1979-03-01 01:17:35.750 ,4,1,0.,24.0,0.,24.0,0.,24.0,0.,24.0
1979-03-01 01:17:59.750 ,5,1,0.,24.0,1.,24.0,0.,24.0,0.,24.0
1979-03-01 01:18:23.750 ,6,1,0.,24.0,0.,24.0,0.,24.0,0.,24.0
1979-03-01 01:18:47.750 ,7,1,4.,24.0,0.,24.0,0.,24.0,0.,24.0
1979-03-01 01:19:11.750 ,0,0,8.,24.0,0.,24.0,0.,24.0,0.,24.0
1979-03-01 01:19:35.750 ,6,1,4.,24.0,0.,24.0,0.,24.0,0.,24.0
1979-03-01 01:19:59.750 ,5,1,0.,24.0,0.,24.0,0.,24.0,0.,24.0
1979-03-01 01:20:23.750 ,4,1,1.,24.0,0.,24.0,1.,24.0,0.,24.0
1979-03-01 01:20:47.750 ,3,1,0.,24.0,0.,24.0,0.,24.0,0.,24.0
1979-03-01 01:21:11.750 ,2,1,0.,24.0,0.,24.0,0.,24.0,0.,24.0
1979-03-01 01:21:35.750 ,1,1,0.,24.0,0.,24.0,0.,24.0,0.,24.0
1979-03-01 01:21:59.750 ,0,1,0.,24.0,0.,24.0,0.,24.0,0.,24.0
1979-03-01 01:22:23.750 ,0,1,1.,24.0,0.,24.0,0.,24.0,0.,24.0
1979-03-01 01:22:47.750 ,1,1,0.,24.0,0.,24.0,0.,24.0,0.,24.0
1979-03-01 01:23:11.750 ,2,1,0.,24.0,0.,24.0,1.,24.0,0.,24.0
1979-03-01 01:23:35.750 ,3,1,1.,24.0,0.,24.0,0.,24.0,0.,24.0
1979-03-01 01:23:59.750 ,4,1,0.,24.0,0.,24.0,0.,24.0,0.,24.0
1979-03-01 01:24:23.750 ,5,1,0.,24.0,0.,24.0,0.,24.0,0.,24.0
1979-03-01 01:24:47.750 ,6,1,0.,24.0,0.,24.0,1.,24.0,0.,24.0
1979-03-01 01:25:11.750 ,7,1,1.,24.0,0.,24.0,0.,24.0,0.,24.0
1979-03-01 01:25:35.750 ,7,1,10.,24.0,0.,24.0,0.,24.0,0.,24.0
1979-03-01 01:25:59.750 ,6,1,5.,24.0,0.,24.0,0.,24.0,0.,24.0
1979-03-01 01:26:23.750 ,5,1,0.,24.0,0.,24.0,0.,24.0,0.,24.0
1979-03-01 01:26:47.750 ,4,1,0.,24.0,0.,24.0,0.,24.0,0.,24.0
1979-03-01 01:27:11.750 ,3,1,1.,24.0,1.,24.0,0.,24.0,0.,24.0
1979-03-01 01:27:35.750 ,2,1,1.,24.0,0.,24.0,2.,24.0,0.,24.0
1979-03-01 01:27:59.750 ,1,1,1.,24.0,0.,24.0,0.,24.0,0.,24.0
1979-03-01 01:28:23.750 ,0,1,0.,24.0,0.,24.0,1.,24.0,0.,24.0
1979-03-01 01:28:47.750 ,0,1,0.,24.0,0.,24.0,0.,24.0,0.,24.0
1979-03-01 01:29:11.750 ,1,1,0.,24.0,0.,24.0,0.,24.0,0.,24.0
1979-03-01 01:29:35.750 ,2,1,1.,24.0,0.,24.0,0.,24.0,0.,24.0
1979-03-01 01:29:59.750 ,3,1,1.,24.0,0.,24.0,1.,24.0,0.,24.0
1979-03-01 01:30:23.750 ,4,1,0.,24.0,0.,24.0,0.,24.0,0.,24.0
1979-03-01 01:30:47.750 ,5,1,1.,24.0,1.,24.0,0.,24.0,0.,24.0
1979-03-01 01:31:11.750 ,6,1,0.,24.0,0.,24.0,0.,24.0,0.,24.0
1979-03-01 01:31:35.750 ,7,1,1.,24.0,0.,24.0,0.,24.0,0.,24.0
1979-03-01 01:31:59.750 ,7,1,9.,24.0,0.,24.0,0.,24.0,0.,24.0
1979-03-01 01:32:23.750 ,6,1,5.,24.0,0.,24.0,0.,24.0,0.,24.0
1979-03-01 01:33:35.750 ,0,0,0.,24.0,0.,24.0,0.,24.0,0.,24.0
1979-03-01 01:33:59.750 ,2,1,0.,24.0,0.,24.0,0.,24.0,0.,24.0
1979-03-01 01:34:23.750 ,1,1,1.,24.0,0.,24.0,0.,24.0,0.,24.0
1979-03-01 01:34:47.750 ,0,1,1.,24.0,0.,24.0,1.,24.0,0.,24.0
1979-03-01 01:35:11.750 ,0,1,0.,24.0,0.,24.0,0.,24.0,0.,24.0
1979-03-01 01:35:35.750 ,1,1,0.,24.0,0.,24.0,0.,24.0,0.,24.0
1979-03-01 01:35:59.750 ,2,1,2.,24.0,0.,24.0,0.,24.0,0.,24.0
1979-03-01 01:36:23.750 ,3,1,1.,24.0,0.,24.0,0.,24.0,0.,24.0
1979-03-01 01:36:47.750 ,4,1,0.,24.0,0.,24.0,0.,24.0,0.,24.0
1979-03-01 01:37:11.750 ,5,1,0.,24.0,0.,24.0,0.,24.0,0.,24.0
1979-03-01 01:37:35.750 ,6,1,0.,24.0,0.,24.0,0.,24.0,0.,24.0
1979-03-01 01:37:59.750 ,7,1,1.,24.0,1.,24.0,0.,24.0,0.,24.0
1979-03-01 01:38:23.750 ,7,1,11.,24.0,0.,24.0,0.,24.0,0.,24.0
1979-03-01 01:38:47.750 ,6,1,12.,24.0,0.,24.0,0.,24.0,0.,24.0
1979-03-01 01:39:11.750 ,5,1,0.,24.0,0.,24.0,0.,24.0,0.,24.0
1979-03-01 01:39:35.750 ,4,1,1.,24.0,0.,24.0,2.,24.0,0.,24.0
1979-03-01 01:39:59.750 ,3,1,0.,24.0,0.,24.0,0.,24.0,0.,24.0
1979-03-01 01:40:23.750 ,2,1,0.,24.0,0.,24.0,2.,24.0,0.,24.0
1979-03-01 01:40:47.750 ,1,1,0.,24.0,0.,24.0,0.,24.0,0.,24.0
1979-03-01 01:41:11.750 ,0,1,1.,24.0,0.,24.0,0.,24.0,0.,24.0
1979-03-01 01:41:35.750 ,0,1,0.,24.0,0.,24.0,0.,24.0,0.,24.0
1979-03-01 01:41:59.750 ,1,1,0.,24.0,0.,24.0,2.,24.0,0.,24.0
1979-03-01 01:42:23.750 ,2,1,0.,24.0,1.,24.0,1.,24.0,0.,24.0
1979-03-01 01:42:47.750 ,3,1,0.,24.0,0.,24.0,0.,24.0,0.,24.0
1979-03-01 01:43:11.750 ,4,1,0.,24.0,0.,24.0,0.,24.0,0.,24.0
1979-03-01 01:43:35.750 ,5,1,0.,24.0,0.,24.0,0.,24.0,0.,24.0
1979-03-01 01:43:59.750 ,6,1,2.,24.0,0.,24.0,0.,24.0,0.,24.0
1979-03-01 01:44:23.750 ,7,1,2.,24.0,0.,24.0,0.,24.0,0.,24.0
1979-03-01 01:44:47.750 ,7,1,13.,24.0,0.,24.0,1.,24.0,0.,24.0
1979-03-01 01:45:11.750 ,6,1,4.,24.0,0.,24.0,0.,24.0,0.,24.0
1979-03-01 01:45:35.750 ,5,1,1.,24.0,0.,24.0,0.,24.0,0.,24.0
1979-03-01 01:45:59.750 ,4,1,0.,24.0,0.,24.0,0.,24.0,0.,24.0
1979-03-01 01:46:23.750 ,3,1,0.,24.0,1.,24.0,0.,24.0,0.,24.0
1979-03-01 01:46:47.750 ,2,1,1.,24.0,0.,24.0,0.,24.0,0.,24.0
1979-03-01 01:47:11.750 ,1,1,0.,24.0,0.,24.0,1.,24.0,0.,24.0
1979-03-01 01:47:35.750 ,0,1,1.,24.0,0.,24.0,0.,24.0,0.,24.0
1979-03-01 01:47:59.750 ,0,1,1.,24.0,0.,24.0,0.,24.0,0.,24.0
1979-03-01 01:48:23.750 ,1,1,0.,24.0,0.,24.0,0.,24.0,0.,24.0
1979-03-01 01:48:47.750 ,2,1,0.,24.0,0.,24.0,1.,24.0,0.,24.0
1979-03-01 01:49:11.750 ,3,1,0.,24.0,0.,24.0,0.,24.0,0.,24.0
1979-03-01 01:49:35.750 ,4,1,0.,24.0,0.,24.0,0.,24.0,0.,24.0
1979-03-01 01:49:59.750 ,5,1,0.,24.0,0.,24.0,0.,24.0,0.,24.0
1979-03-01 01:50:23.750 ,6,1,0.,24.0,0.,24.0,0.,24.0,0.,24.0
1979-03-01 01:50:47.750 ,7,1,2.,24.0,0.,24.0,0.,24.0,0.,24.0
1979-03-01 01:51:11.750 ,7,1,17.,24.0,0.,24.0,1.,24.0,0.,24.0
1979-03-01 01:51:35.750 ,6,1,8.,24.0,0.,24.0,1.,24.0,0.,24.0
1979-03-01 01:51:59.750 ,5,1,0.,24.0,0.,24.0,1.,24.0,0.,24.0
1979-03-01 01:52:23.750 ,4,1,0.,24.0,0.,24.0,0.,24.0,0.,24.0
1979-03-01 01:52:47.750 ,3,1,0.,24.0,0.,24.0,0.,24.0,0.,24.0
1979-03-01 01:53:11.750 ,2,1,1.,24.0,0.,24.0,0.,24.0,0.,24.0
1979-03-01 01:53:35.750 ,1,1,0.,24.0,0.,24.0,0.,24.0,0.,24.0
1979-03-01 01:53:59.750 ,0,1,0.,24.0,0.,24.0,1.,24.0,0.,24.0
1979-03-01 01:54:23.750 ,0,1,0.,24.0,0.,24.0,0.,24.0,0.,24.0
1979-03-01 01:54:47.750 ,1,1,0.,24.0,0.,24.0,0.,24.0,0.,24.0
1979-03-01 01:55:11.750 ,2,1,0.,24.0,0.,24.0,0.,24.0,0.,24.0
1979-03-01 01:55:35.750 ,3,1,0.,24.0,0.,24.0,0.,24.0,0.,24.0
1979-03-01 01:56:47.750 ,0,0,0.,24.0,0.,24.0,0.,24.0,0.,24.0
1979-03-01 01:57:11.750 ,7,1,1.,24.0,0.,24.0,0.,24.0,0.,24.0
1979-03-01 01:57:35.750 ,7,1,6.,24.0,0.,24.0,0.,24.0,0.,24.0
1979-03-01 01:57:59.750 ,6,1,7.,24.0,0.,24.0,0.,24.0,0.,24.0
1979-03-01 01:58:23.750 ,5,1,1.,24.0,0.,24.0,0.,24.0,0.,24.0
1979-03-01 01:58:47.750 ,4,1,0.,24.0,0.,24.0,0.,24.0,0.,24.0
1979-03-01 01:59:11.750 ,3,1,0.,24.0,0.,24.0,0.,24.0,0.,24.0
1979-03-01 01:59:35.750 ,2,1,0.,24.0,0.,24.0,0.,24.0,0.,24.0
1979-03-01 01:59:59.750 ,1,1,0.,24.0,0.,24.0,0.,24.0,0.,24.0
1979-03-01 02:00:23.750 ,0,1,0.,24.0,0.,24.0,0.,24.0,0.,24.0
1979-03-01 02:00:47.750 ,0,1,0.,24.0,0.,24.0,0.,24.0,0.,24.0
1979-03-01 02:01:11.750 ,1,1,0.,24.0,0.,24.0,0.,24.0,0.,24.0
1979-03-01 02:01:35.750 ,2,1,0.,24.0,0.,24.0,1.,24.0,0.,24.0
1979-03-01 02:01:59.750 ,3,1,0.,24.0,0.,24.0,0.,24.0,0.,24.0
1979-03-01 02:02:23.750 ,4,1,0.,24.0,0.,24.0,0.,24.0,0.,24.0
1979-03-01 02:02:47.750 ,5,1,0.,24.0,0.,24.0,0.,24.0,0.,24.0
1979-03-01 02:03:11.750 ,6,1,0.,24.0,0.,24.0,0.,24.0,0.,24.0
1979-03-01 02:03:35.750 ,7,1,1.,24.0,0.,24.0,0.,24.0,0.,24.0
1979-03-01 02:03:59.750 ,7,1,13.,24.0,0.,24.0,0.,24.0,0.,24.0
1979-03-01 02:04:23.750 ,6,1,9.,24.0,0.,24.0,0.,24.0,0.,24.0
1979-03-01 02:04:47.750 ,5,1,0.,24.0,0.,24.0,0.,24.0,0.,24.0
1979-03-01 02:05:11.750 ,4,1,0.,24.0,0.,24.0,0.,24.0,0.,24.0
1979-03-01 02:05:35.750 ,3,1,0.,24.0,0.,24.0,0.,24.0,0.,24.0
1979-03-01 02:05:59.750 ,2,1,0.,24.0,0.,24.0,0.,24.0,0.,24.0
1979-03-01 02:06:23.750 ,1,1,0.,24.0,0.,24.0,0.,24.0,0.,24.0
1979-03-01 02:06:47.750 ,0,1,0.,24.0,0.,24.0,1.,24.0,0.,24.0
1979-03-01 02:07:11.750 ,0,1,0.,24.0,0.,24.0,0.,24.0,0.,24.0
1979-03-01 02:07:35.750 ,1,1,0.,24.0,0.,24.0,0.,24.0,0.,24.0
1979-03-01 02:07:59.750 ,2,1,0.,24.0,0.,24.0,0.,24.0,0.,24.0
1979-03-01 02:08:23.750 ,3,1,0.,24.0,0.,24.0,0.,24.0,0.,24.0
1979-03-01 02:08:47.750 ,4,1,0.,24.0,0.,24.0,0.,24.0,0.,24.0
1979-03-01 02:09:11.750 ,5,1,0.,24.0,0.,24.0,1.,24.0,0.,24.0
1979-03-01 02:09:35.750 ,6,1,0.,24.0,0.,24.0,0.,24.0,0.,24.0
1979-03-01 02:09:59.750 ,7,1,1.,24.0,0.,24.0,0.,24.0,0.,24.0
1979-03-01 02:10:23.750 ,7,1,7.,24.0,0.,24.0,0.,24.0,0.,24.0
1979-03-01 02:10:47.750 ,6,1,8.,24.0,0.,24.0,0.,24.0,0.,24.0
1979-03-01 02:11:11.750 ,5,1,0.,24.0,0.,24.0,1.,24.0,0.,24.0
1979-03-01 02:11:35.750 ,4,1,0.,24.0,0.,24.0,1.,24.0,0.,24.0
1979-03-01 02:11:59.750 ,3,1,0.,24.0,0.,24.0,0.,24.0,0.,24.0
1979-03-01 02:12:23.750 ,2,1,0.,24.0,0.,24.0,1.,24.0,0.,24.0
1979-03-01 02:12:47.750 ,1,1,0.,24.0,0.,24.0,0.,24.0,0.,24.0
1979-03-01 02:13:11.750 ,0,1,0.,24.0,0.,24.0,0.,24.0,0.,24.0
1979-03-01 02:13:35.750 ,0,1,0.,24.0,0.,24.0,0.,24.0,0.,24.0
1979-03-01 02:13:59.750 ,1,1,0.,24.0,0.,24.0,0.,24.0,0.,24.0
1979-03-01 02:14:23.750 ,2,1,1.,24.0,0.,24.0,0.,24.0,0.,24.0
1979-03-01 02:14:47.750 ,3,1,0.,24.0,0.,24.0,1.,24.0,0.,24.0
1979-03-01 02:15:11.750 ,4,1,0.,24.0,0.,24.0,0.,24.0,0.,24.0
1979-03-01 02:15:35.750 ,5,1,0.,24.0,0.,24.0,0.,24.0,0.,24.0
1979-03-01 02:15:59.750 ,6,1,2.,24.0,0.,24.0,0.,24.0,0.,24.0
1979-03-01 02:16:23.750 ,7,1,2.,24.0,0.,24.0,1.,24.0,0.,24.0
1979-03-01 02:16:47.750 ,7,1,14.,24.0,0.,24.0,1.,24.0,0.,24.0
1979-03-01 02:17:11.750 ,6,1,4.,24.0,0.,24.0,1.,24.0,0.,24.0
1979-03-01 02:17:35.750 ,5,1,0.,24.0,0.,24.0,0.,24.0,0.,24.0
1979-03-01 02:17:59.750 ,4,1,0.,24.0,0.,24.0,1.,24.0,0.,24.0
1979-03-01 02:18:23.750 ,3,1,0.,24.0,0.,24.0,0.,24.0,0.,24.0
1979-03-01 02:18:47.750 ,2,1,0.,24.0,0.,24.0,0.,24.0,0.,24.0
1979-03-01 02:19:11.750 ,1,1,1.,24.0,0.,24.0,0.,24.0,0.,24.0
1979-03-01 02:19:35.750 ,0,1,1.,24.0,0.,24.0,0.,24.0,0.,24.0
1979-03-01 02:19:59.750 ,0,1,0.,24.0,0.,24.0,0.,24.0,0.,24.0
1979-03-01 02:20:23.750 ,1,1,0.,24.0,0.,24.0,0.,24.0,0.,24.0
1979-03-01 02:20:47.750 ,2,1,0.,24.0,0.,24.0,0.,24.0,0.,24.0
1979-03-01 02:21:11.750 ,3,1,1.,24.0,0.,24.0,0.,24.0,0.,24.0
1979-03-01 02:21:35.750 ,4,1,0.,24.0,0.,24.0,1.,24.0,0.,24.0
1979-03-01 02:21:59.750 ,5,1,0.,24.0,0.,24.0,0.,24.0,0.,24.0
1979-03-01 02:22:23.750 ,6,1,0.,24.0,0.,24.0,0.,24.0,0.,24.0
1979-03-01 02:22:47.750 ,7,1,5.,24.0,0.,24.0,0.,24.0,0.,24.0
1979-03-01 02:23:11.750 ,7,1,3.,24.0,0.,24.0,1.,24.0,0.,24.0
1979-03-01 02:23:35.750 ,6,1,5.,24.0,0.,24.0,1.,24.0,0.,24.0
1979-03-01 02:23:59.750 ,5,1,0.,24.0,0.,24.0,0.,24.0,0.,24.0
1979-03-01 02:24:23.750 ,4,1,0.,24.0,0.,24.0,0.,24.0,0.,24.0
1979-03-01 02:24:47.750 ,3,1,1.,24.0,0.,24.0,0.,24.0,0.,24.0
1979-03-01 02:25:11.750 ,2,1,0.,24.0,0.,24.0,0.,24.0,0.,24.0
1979-03-01 02:25:35.750 ,1,1,0.,24.0,0.,24.0,0.,24.0,0.,24.0
1979-03-01 02:25:59.750 ,0,1,,0,,0,,0,,0
1979-03-01 02:26:23.750 ,0,1,0.,24.0,0.,24.0,0.,24.0,0.,24.0
1979-03-01 02:26:47.750 ,1,1,0.,24.0,0.,24.0,1.,24.0,0.,24.0
1979-03-01 02:27:11.750 ,2,1,0.,24.0,0.,24.0,0.,24.0,0.,24.0
1979-03-01 02:27:35.750 ,3,1,0.,24.0,0.,24.0,0.,24.0,0.,24.0
1979-03-01 02:27:59.750 ,4,1,1.,24.0,0.,24.0,0.,24.0,0.,24.0
1979-03-01 02:28:23.750 ,5,1,0.,24.0,0.,24.0,0.,24.0,0.,24.0
1979-03-01 02:28:47.750 ,6,1,0.,24.0,0.,24.0,0.,24.0,0.,24.0
1979-03-01 02:29:11.750 ,7,1,2.,24.0,0.,24.0,0.,24.0,0.,24.0
1979-03-01 02:29:35.750 ,7,1,10.,24.0,0.,24.0,0.,24.0,0.,24.0
1979-03-01 02:29:59.750 ,6,1,5.,24.0,0.,24.0,0.,24.0,0.,24.0
1979-03-01 02:30:23.750 ,5,1,0.,24.0,1.,24.0,0.,24.0,0.,24.0
1979-03-01 02:30:47.750 ,4,1,1.,24.0,0.,24.0,0.,24.0,0.,24.0
1979-03-01 02:31:11.750 ,3,1,0.,24.0,0.,24.0,2.,24.0,0.,24.0
1979-03-01 02:31:35.750 ,2,1,0.,24.0,0.,24.0,0.,24.0,0.,24.0
1979-03-01 02:31:59.750 ,1,1,0.,24.0,0.,24.0,0.,24.0,0.,24.0
1979-03-01 02:32:23.750 ,0,1,0.,24.0,0.,24.0,0.,24.0,0.,24.0
1979-03-01 02:32:47.750 ,0,1,0.,24.0,0.,24.0,0.,24.0,0.,24.0
1979-03-01 02:33:11.750 ,1,1,0.,24.0,0.,24.0,1.,24.0,0.,24.0
1979-03-01 02:33:35.750 ,2,1,0.,24.0,0.,24.0,0.,24.0,0.,24.0
1979-03-01 02:33:59.750 ,3,1,0.,24.0,0.,24.0,2.,24.0,0.,24.0
1979-03-01 02:34:23.750 ,4,1,0.,24.0,0.,24.0,0.,24.0,0.,24.0
1979-03-01 02:34:47.750 ,5,1,0.,24.0,0.,24.0,0.,24.0,0.,24.0
1979-03-01 02:35:11.750 ,6,1,0.,24.0,0.,24.0,0.,24.0,0.,24.0
1979-03-01 02:35:35.750 ,7,1,3.,24.0,0.,24.0,1.,24.0,0.,24.0
1979-03-01 02:35:59.750 ,7,1,10.,24.0,0.,24.0,0.,24.0,0.,24.0
1979-03-01 02:36:23.750 ,6,1,8.,24.0,0.,24.0,0.,24.0,0.,24.0
1979-03-01 02:36:47.750 ,5,1,0.,24.0,0.,24.0,0.,24.0,0.,24.0
1979-03-01 02:37:11.750 ,4,1,0.,24.0,0.,24.0,0.,24.0,0.,24.0
1979-03-01 02:37:35.750 ,3,1,0.,24.0,0.,24.0,0.,24.0,0.,24.0